Tracking 28790 objects as of 19-Apr-2024
HD Live streaming from Space Station
objects crossing your sky now

STARLINK-1154

Track STARLINK-1154 now!
10-day predictions
STARLINK-1154 is classified as:


NORAD ID: 45198
Int'l Code: 2020-012W
Perigee: 553.4 km
Apogee: 555.4 km
Inclination: 53.1 °
Period: 95.6 minutes
Semi major axis: 6925 km
RCS: Unknown
Launch date: February 17, 2020
Source: United States (US)
Launch site: AIR FORCE EASTERN TEST RANGE (AFETR)
Your satellite tracking list
Your tracking list is empty




NASA's NSSDC Master Catalog

Two Line Element Set (TLE):
1 45198U 20012W   24109.64921097 -.00000002  00000-0  18778-4 0  9994
2 45198  53.0549 244.3283 0001490  88.2431 271.8729 15.06387429231053
Source of the keplerian elements: AFSPC